| time (UTC) | temp F | wind direction | speed knots | gust knots | rain 1hr in | rain 24hr in | rain mn in | humidity % | barometer mb |
| 20260831042421 | 86 | 138 | 4.3 | 6.1 | 0.00 | 0.00 | 0.00 | 44 | 1015.3 |
| 20260831041916 | 86 | 105 | 3.5 | 5.2 | 0.00 | 0.00 | 0.00 | 44 | 1015.2 |
| 20260831041416 | 86 | 144 | 1.7 | 2.6 | 0.00 | 0.00 | 0.00 | 43 | 1015.3 |
| 20260831040912 | 86 | 201 | 5.2 | 6.1 | 0.00 | 0.00 | 0.00 | 43 | 1015.2 |
| 20260831040412 | 87 | 50 | 1.7 | 2.6 | 0.00 | 0.00 | 0.00 | 42 | 1015.2 |
| 20260831035909 | 87 | 138 | 2.6 | 2.6 | 0.00 | 0.00 | 0.00 | 42 | 1015.1 |
| 20260831035409 | 87 | 116 | 5.2 | 6.1 | 0.00 | 0.00 | 0.00 | 42 | 1015.2 |
| 20260831034908 | 87 | 37 | 0.9 | 1.7 | 0.00 | 0.00 | 0.00 | 42 | 1015.1 |
| 20260831034404 | 87 | 63 | 0.9 | 0.9 | 0.00 | 0.00 | 0.00 | 42 | 1015.1 |
| 20260831033859 | 87 | 136 | 2.6 | 3.5 | 0.00 | 0.00 | 0.00 | 42 | 1015.0 |
| 20260831033354 | 87 | 19 | 0.0 | 0.0 | 0.00 | 0.00 | 0.00 | 42 | 1014.7 |
| 20260831032850 | 87 | 36 | 0.9 | 0.9 | 0.00 | 0.00 | 0.00 | 42 | 1015.0 |
| 20260831032349 | 87 | 187 | 1.7 | 3.5 | 0.00 | 0.00 | 0.00 | 42 | 1014.9 |
| 20260831031845 | 88 | 54 | 1.7 | 2.6 | 0.00 | 0.00 | 0.00 | 42 | 1014.6 |
| 20260831031344 | 88 | 28 | 0.9 | 0.9 | 0.00 | 0.00 | 0.00 | 41 | 1014.8 |
| 20260831030839 | 88 | 146 | 1.7 | 1.7 | 0.00 | 0.00 | 0.00 | 41 | 1014.7 |
| 20260831030338 | 89 | 22 | 0.0 | 0.9 | 0.00 | 0.00 | 0.00 | 41 | 1014.9 |
| 20260831025837 | 89 | 91 | 1.7 | 1.7 | 0.00 | 0.00 | 0.00 | 40 | 1014.7 |
| 20260831025332 | 89 | 188 | 1.7 | 2.6 | 0.00 | 0.00 | 0.00 | 40 | 1014.7 |
| 20260831024827 | 89 | 32 | 0.9 | 0.9 | 0.00 | 0.00 | 0.00 | 40 | 1014.7 |
| 20260831024326 | 89 | 44 | 0.9 | 1.7 | 0.00 | 0.00 | 0.00 | 40 | 1014.6 |
| 20260831023825 | 89 | 28 | 0.9 | 1.7 | 0.00 | 0.00 | 0.00 | 40 | 1014.5 |
| 20260831023324 | 89 | 46 | 0.9 | 1.7 | 0.00 | 0.00 | 0.00 | 40 | 1014.4 |
| 20260831022820 | 90 | 47 | 0.9 | 0.9 | 0.00 | 0.00 | 0.00 | 40 | 1014.1 |
| 20260831022319 | 90 | 38 | 0.9 | 0.9 | 0.00 | 0.00 | 0.00 | 40 | 1014.4 |
| 20260831021814 | 90 | 127 | 1.7 | 3.5 | 0.00 | 0.00 | 0.00 | 39 | 1014.4 |
| 20260831021313 | 90 | 120 | 1.7 | 2.6 | 0.00 | 0.00 | 0.00 | 39 | 1014.2 |
| 20260831020809 | 90 | 81 | 0.9 | 1.7 | 0.00 | 0.00 | 0.00 | 39 | 1014.1 |
| 20260831020308 | 90 | 31 | 1.7 | 2.6 | 0.00 | 0.00 | 0.00 | 39 | 1014.2 |
| 20260831015804 | 91 | 345 | 0.0 | 0.9 | 0.00 | 0.00 | 0.00 | 39 | 1014.1 |
| 20260831015300 | 91 | 64 | 0.9 | 0.9 | 0.00 | 0.00 | 0.00 | 39 | 1014.0 |
| 20260831014759 | 91 | 198 | 3.5 | 5.2 | 0.00 | 0.00 | 0.00 | 39 | 1013.9 |
| 20260831014254 | 91 | 45 | 0.9 | 0.9 | 0.00 | 0.00 | 0.00 | 39 | 1013.9 |
| 20260831013751 | 91 | 15 | 0.0 | 0.0 | 0.00 | 0.00 | 0.00 | 39 | 1013.8 |
| 20260831013250 | 91 | 12 | 0.0 | 0.9 | 0.00 | 0.00 | 0.00 | 39 | 1013.7 |
| 20260831012745 | 92 | 19 | 0.0 | 0.0 | 0.00 | 0.00 | 0.00 | 38 | 1013.9 |
| 20260831012240 | 92 | 38 | 0.9 | 0.9 | 0.00 | 0.00 | 0.00 | 37 | 1013.9 |
| 20260831011739 | 93 | 327 | 0.9 | 0.9 | 0.00 | 0.00 | 0.00 | 37 | 1013.7 |
| 20260831011235 | 93 | 42 | 0.9 | 0.9 | 0.00 | 0.00 | 0.00 | 37 | 1014.0 |
| 20260831010731 | 93 | 46 | 1.7 | 1.7 | 0.00 | 0.00 | 0.00 | 36 | 1013.6 |
| 20260831010231 | 94 | 148 | 2.6 | 3.5 | 0.00 | 0.00 | 0.00 | 36 | 1013.9 |
| 20260831005726 | 94 | 46 | 1.7 | 2.6 | 0.00 | 0.00 | 0.00 | 35 | 1013.8 |
| 20260831005221 | 95 | 188 | 1.7 | 3.5 | 0.00 | 0.00 | 0.00 | 35 | 1013.7 |
| 20260831004717 | 95 | 308 | 0.9 | 1.7 | 0.00 | 0.00 | 0.00 | 34 | 1013.8 |
| 20260831004213 | 95 | 170 | 1.7 | 1.7 | 0.00 | 0.00 | 0.00 | 34 | 1013.9 |
| 20260831003708 | 96 | 66 | 0.9 | 1.7 | 0.00 | 0.00 | 0.00 | 34 | 1013.8 |
| 20260831003205 | 96 | 76 | 2.6 | 3.5 | 0.00 | 0.00 | 0.00 | 33 | 1013.8 |
| 20260831002703 | 96 | 214 | 3.5 | 6.1 | 0.00 | 0.00 | 0.00 | 33 | 1013.7 |
| 20260831002158 | 97 | 94 | 3.5 | 5.2 | 0.00 | 0.00 | 0.00 | 32 | 1013.8 |
| 20260831001654 | 97 | 125 | 3.5 | 5.2 | 0.00 | 0.00 | 0.00 | 32 | 1013.7 |
| 20260831001149 | 97 | 74 | 2.6 | 2.6 | 0.00 | 0.00 | 0.00 | 32 | 1013.7 |
| 20260831000646 | 97 | 161 | 4.3 | 6.1 | 0.00 | 0.00 | 0.00 | 32 | 1013.6 |
| 20260831000146 | 98 | 107 | 5.2 | 6.1 | 0.00 | 0.00 | 0.00 | 31 | 1013.8 |
| 20260830235644 | 98 | 157 | 4.3 | 5.2 | 0.00 | 0.00 | 0.00 | 31 | 1013.9 |
| 20260830235140 | 98 | 156 | 2.6 | 2.6 | 0.00 | 0.00 | 0.00 | 31 | 1013.6 |
| 20260830234635 | 98 | 133 | 3.5 | 3.5 | 0.00 | 0.00 | 0.00 | 31 | 1013.7 |
| 20260830234130 | 99 | 167 | 4.3 | 6.1 | 0.00 | 0.00 | 0.00 | 30 | 1013.8 |
| 20260830233626 | 99 | 184 | 6.1 | 8.7 | 0.00 | 0.00 | 0.00 | 31 | 1013.7 |
| 20260830233121 | 99 | 142 | 3.5 | 5.2 | 0.00 | 0.00 | 0.00 | 30 | 1013.7 |
| 20260830232617 | 100 | 186 | 4.3 | 5.2 | 0.00 | 0.00 | 0.00 | 30 | 1013.7 |
| 20260830232113 | 100 | 223 | 5.2 | 7.8 | 0.00 | 0.00 | 0.00 | 29 | 1013.8 |
| 20260830231608 | 100 | 169 | 3.5 | 3.5 | 0.00 | 0.00 | 0.00 | 29 | 1013.7 |
| 20260830231108 | 100 | 156 | 7.8 | 9.6 | 0.00 | 0.00 | 0.00 | 29 | 1013.8 |
| 20260830230603 | 100 | 151 | 3.5 | 5.2 | 0.00 | 0.00 | 0.00 | 28 | 1013.7 |
| 20260830230058 | 101 | 196 | 3.5 | 3.5 | 0.00 | 0.00 | 0.00 | 29 | 1014.0 |
| 20260830225553 | 100 | 125 | 1.7 | 2.6 | 0.00 | 0.00 | 0.00 | 30 | 1013.7 |
| 20260830225053 | 100 | 227 | 7.8 | 11.3 | 0.00 | 0.00 | 0.00 | 30 | 1013.6 |
| 20260830224551 | 100 | 180 | 4.3 | 7.0 | 0.00 | 0.00 | 0.00 | 30 | 1013.6 |
| 20260830224049 | 99 | 200 | 2.6 | 2.6 | 0.00 | 0.00 | 0.00 | 31 | 1013.6 |
| 20260830223546 | 99 | 213 | 5.2 | 7.0 | 0.00 | 0.00 | 0.00 | 31 | 1013.7 |
| 20260830223045 | 100 | 169 | 3.5 | 6.1 | 0.00 | 0.00 | 0.00 | 30 | 1013.8 |
| 20260830222539 | 100 | 137 | 3.5 | 6.1 | 0.00 | 0.00 | 0.00 | 30 | 1013.7 |
| 20260830222036 | 101 | 90 | 4.3 | 7.8 | 0.00 | 0.00 | 0.00 | 29 | 1013.9 |
| 20260830221531 | 101 | 177 | 6.1 | 7.8 | 0.00 | 0.00 | 0.00 | 29 | 1013.7 |
| 20260830221027 | 101 | 134 | 2.6 | 2.6 | 0.00 | 0.00 | 0.00 | 30 | 1013.7 |
| 20260830220527 | 101 | 222 | 4.3 | 6.1 | 0.00 | 0.00 | 0.00 | 30 | 1013.8 |
| 20260830220025 | 101 | 192 | 5.2 | 7.0 | 0.00 | 0.00 | 0.00 | 30 | 1013.9 |
| 20260830215520 | 101 | 162 | 3.5 | 3.5 | 0.00 | 0.00 | 0.00 | 30 | 1013.9 |
| 20260830215014 | 101 | 296 | 1.7 | 1.7 | 0.00 | 0.00 | 0.00 | 30 | 1013.8 |
| 20260830214509 | 101 | 229 | 7.0 | 12.2 | 0.00 | 0.00 | 0.00 | 29 | 1014.0 |
| 20260830214004 | 101 | 153 | 1.7 | 3.5 | 0.00 | 0.00 | 0.00 | 30 | 1013.9 |
| 20260830213458 | 101 | 28 | 0.9 | 0.9 | 0.00 | 0.00 | 0.00 | 30 | 1014.0 |
| 20260830212954 | 102 | 195 | 1.7 | 2.6 | 0.00 | 0.00 | 0.00 | 29 | 1014.0 |
| 20260830212449 | 102 | 215 | 3.5 | 5.2 | 0.00 | 0.00 | 0.00 | 29 | 1013.9 |
| 20260830211949 | 102 | 189 | 3.5 | 3.5 | 0.00 | 0.00 | 0.00 | 29 | 1014.4 |
| 20260830211444 | 100 | 204 | 6.1 | 7.0 | 0.00 | 0.00 | 0.00 | 29 | 1013.9 |
| 20260830210939 | 101 | 164 | 7.8 | 8.7 | 0.00 | 0.00 | 0.00 | 28 | 1014.4 |
| 20260830210439 | 101 | 218 | 7.0 | 7.8 | 0.00 | 0.00 | 0.00 | 29 | 1014.2 |
| 20260830205937 | 102 | 135 | 5.2 | 7.8 | 0.00 | 0.00 | 0.00 | 27 | 1014.4 |
| 20260830205436 | 101 | 96 | 3.5 | 3.5 | 0.00 | 0.00 | 0.00 | 28 | 1014.6 |
| 20260830204931 | 102 | 204 | 7.0 | 7.8 | 0.00 | 0.00 | 0.00 | 27 | 1014.4 |
| 20260830204431 | 101 | 172 | 5.2 | 7.8 | 0.00 | 0.00 | 0.00 | 28 | 1014.5 |
| 20260830203925 | 101 | 166 | 2.6 | 2.6 | 0.00 | 0.00 | 0.00 | 29 | 1014.6 |
| 20260830203422 | 100 | 159 | 7.0 | 12.2 | 0.00 | 0.00 | 0.00 | 30 | 1014.6 |
| 20260830202921 | 100 | 219 | 5.2 | 6.1 | 0.00 | 0.00 | 0.00 | 29 | 1014.6 |
| 20260830202417 | 100 | 251 | 5.2 | 6.1 | 0.00 | 0.00 | 0.00 | 29 | 1014.8 |
| 20260830201913 | 101 | 189 | 7.8 | 8.7 | 0.00 | 0.00 | 0.00 | 29 | 1014.8 |
| 20260830201412 | 101 | 144 | 4.3 | 5.2 | 0.00 | 0.00 | 0.00 | 30 | 1014.9 |
| 20260830200908 | 101 | 199 | 5.2 | 8.7 | 0.00 | 0.00 | 0.00 | 31 | 1014.9 |
| 20260830200408 | 101 | 231 | 2.6 | 3.5 | 0.00 | 0.00 | 0.00 | 31 | 1014.9 |
| 20260830195903 | 100 | 68 | 6.1 | 8.7 | 0.00 | 0.00 | 0.00 | 32 | 1014.9 |
| 20260830195402 | 100 | 216 | 1.7 | 2.6 | 0.00 | 0.00 | 0.00 | 32 | 1015.1 |
| 20260830194901 | 102 | 210 | 2.6 | 5.2 | 0.00 | 0.00 | 0.00 | 30 | 1015.1 |
| 20260830194400 | 101 | 340 | 0.9 | 0.9 | 0.00 | 0.00 | 0.00 | 32 | 1015.1 |
| 20260830193855 | 101 | 116 | 3.5 | 5.2 | 0.00 | 0.00 | 0.00 | 32 | 1015.2 |
| 20260830193354 | 100 | 210 | 2.6 | 3.5 | 0.00 | 0.00 | 0.00 | 32 | 1015.1 |
| 20260830192850 | 101 | 194 | 1.7 | 3.5 | 0.00 | 0.00 | 0.00 | 32 | 1015.3 |
| 20260830192350 | 99 | 234 | 2.6 | 3.5 | 0.00 | 0.00 | 0.00 | 32 | 1015.1 |
| 20260830191846 | 100 | 167 | 5.2 | 6.1 | 0.00 | 0.00 | 0.00 | 33 | 1015.3 |
| 20260830191345 | 99 | 269 | 2.6 | 3.5 | 0.00 | 0.00 | 0.00 | 33 | 1015.4 |
| 20260830190841 | 100 | 255 | 3.5 | 6.1 | 0.00 | 0.00 | 0.00 | 32 | 1015.2 |
| 20260830190336 | 98 | 215 | 3.5 | 5.2 | 0.00 | 0.00 | 0.00 | 34 | 1015.5 |
| 20260830185834 | 98 | 243 | 3.5 | 6.1 | 0.00 | 0.00 | 0.00 | 34 | 1015.4 |
| 20260830185330 | 99 | 160 | 7.8 | 11.3 | 0.00 | 0.00 | 0.00 | 34 | 1015.5 |
| 20260830184825 | 99 | 262 | 3.5 | 5.2 | 0.00 | 0.00 | 0.00 | 34 | 1015.6 |
| 20260830184324 | 98 | 231 | 1.7 | 1.7 | 0.00 | 0.00 | 0.00 | 35 | 1015.6 |
| 20260830183813 | 97 | 0 | 1.7 | 2.6 | 0.00 | 0.00 | 0.00 | 36 | 1015.7 |
| 20260830183313 | 98 | 213 | 4.3 | 7.0 | 0.00 | 0.00 | 0.00 | 35 | 1015.8 |
| 20260830182808 | 97 | 215 | 7.0 | 11.3 | 0.00 | 0.00 | 0.00 | 35 | 1016.0 |
| 20260830182306 | 97 | 49 | 2.6 | 5.2 | 0.00 | 0.00 | 0.00 | 36 | 1015.9 |
| 20260830181800 | 98 | 241 | 6.1 | 9.6 | 0.00 | 0.00 | 0.00 | 35 | 1016.1 |
| 20260830181255 | 98 | 237 | 5.2 | 7.0 | 0.00 | 0.00 | 0.00 | 35 | 1016.0 |
| 20260830180754 | 97 | 286 | 3.5 | 3.5 | 0.00 | 0.00 | 0.00 | 35 | 1015.8 |
| 20260830180250 | 96 | 216 | 3.5 | 6.1 | 0.00 | 0.00 | 0.00 | 35 | 1016.1 |
| 20260830175743 | 97 | 9 | 5.2 | 7.0 | 0.00 | 0.00 | 0.00 | 36 | 1016.4 |
| 20260830175238 | 96 | 5 | 2.6 | 2.6 | 0.00 | 0.00 | 0.00 | 36 | 1016.0 |
| 20260830174733 | 96 | 193 | 3.5 | 5.2 | 0.00 | 0.00 | 0.00 | 36 | 1016.4 |
| 20260830174229 | 96 | 256 | 5.2 | 6.1 | 0.00 | 0.00 | 0.00 | 36 | 1016.4 |
| 20260830173728 | 96 | 213 | 7.0 | 11.3 | 0.00 | 0.00 | 0.00 | 35 | 1016.5 |
| 20260830173224 | 95 | 280 | 5.2 | 8.7 | 0.00 | 0.00 | 0.00 | 36 | 1016.4 |
| 20260830172720 | 96 | 182 | 9.6 | 14.8 | 0.00 | 0.00 | 0.00 | 36 | 1016.6 |
| 20260830172217 | 96 | 348 | 3.5 | 5.2 | 0.00 | 0.00 | 0.00 | 36 | 1016.6 |
| 20260830171712 | 95 | 356 | 5.2 | 7.0 | 0.00 | 0.00 | 0.00 | 36 | 1016.7 |
| 20260830171207 | 94 | 226 | 5.2 | 7.0 | 0.00 | 0.00 | 0.00 | 36 | 1016.9 |
| 20260830170702 | 95 | 144 | 5.2 | 7.0 | 0.00 | 0.00 | 0.00 | 37 | 1016.9 |
| 20260830170201 | 95 | 143 | 7.8 | 11.3 | 0.00 | 0.00 | 0.00 | 36 | 1017.0 |
| 20260830165700 | 95 | 210 | 3.5 | 5.2 | 0.00 | 0.00 | 0.00 | 36 | 1016.9 |
| 20260830165157 | 95 | 174 | 6.1 | 7.8 | 0.00 | 0.00 | 0.00 | 36 | 1017.1 |
| 20260830164653 | 94 | 204 | 4.3 | 6.1 | 0.00 | 0.00 | 0.00 | 37 | 1017.0 |
| 20260830164149 | 93 | 241 | 3.5 | 5.2 | 0.00 | 0.00 | 0.00 | 38 | 1017.3 |
| 20260830163645 | 93 | 213 | 10.4 | 16.5 | 0.00 | 0.00 | 0.00 | 37 | 1017.1 |
| 20260830163145 | 93 | 200 | 6.1 | 7.0 | 0.00 | 0.00 | 0.00 | 37 | 1017.3 |
| 20260830162640 | 92 | 199 | 6.1 | 9.6 | 0.00 | 0.00 | 0.00 | 38 | 1017.1 |
| 20260830162136 | 92 | 178 | 9.6 | 14.8 | 0.00 | 0.00 | 0.00 | 38 | 1016.9 |
| 20260830161631 | 92 | 205 | 7.0 | 7.8 | 0.00 | 0.00 | 0.00 | 38 | 1017.1 |
| 20260830161125 | 91 | 253 | 5.2 | 7.0 | 0.00 | 0.00 | 0.00 | 39 | 1017.0 |
| 20260830160621 | 92 | 189 | 8.7 | 11.3 | 0.00 | 0.00 | 0.00 | 38 | 1017.1 |
| 20260830160116 | 91 | 199 | 2.6 | 3.5 | 0.00 | 0.00 | 0.00 | 39 | 1016.9 |
| 20260830155612 | 90 | 333 | 4.3 | 6.1 | 0.00 | 0.00 | 0.00 | 40 | 1016.9 |
| 20260830155108 | 90 | 226 | 6.1 | 7.8 | 0.00 | 0.00 | 0.00 | 40 | 1017.0 |
| 20260830154603 | 89 | 117 | 4.3 | 6.1 | 0.00 | 0.00 | 0.00 | 41 | 1017.2 |
| 20260830154059 | 90 | 223 | 6.1 | 7.8 | 0.00 | 0.00 | 0.00 | 40 | 1017.0 |
| 20260830153555 | 90 | 193 | 7.8 | 9.6 | 0.00 | 0.00 | 0.00 | 41 | 1017.0 |
| 20260830153054 | 89 | 224 | 4.3 | 9.6 | 0.00 | 0.00 | 0.00 | 42 | 1017.1 |
| 20260830152549 | 88 | 210 | 9.6 | 12.2 | 0.00 | 0.00 | 0.00 | 42 | 1017.2 |
| 20260830152048 | 88 | 198 | 3.5 | 7.0 | 0.00 | 0.00 | 0.00 | 43 | 1017.2 |
| 20260830151549 | 87 | 189 | 4.3 | 8.7 | 0.00 | 0.00 | 0.00 | 43 | 1017.3 |
| 20260830151044 | 87 | 232 | 5.2 | 6.1 | 0.00 | 0.00 | 0.00 | 43 | 1017.1 |
| 20260830150543 | 87 | 231 | 4.3 | 7.0 | 0.00 | 0.00 | 0.00 | 43 | 1017.1 |
| 20260830150037 | 86 | 208 | 6.1 | 8.7 | 0.00 | 0.00 | 0.00 | 44 | 1017.3 |
| 20260830145532 | 86 | 146 | 7.0 | 11.3 | 0.00 | 0.00 | 0.00 | 44 | 1017.1 |
| 20260830145027 | 86 | 192 | 4.3 | 6.1 | 0.00 | 0.00 | 0.00 | 44 | 1017.1 |
| 20260830144523 | 86 | 175 | 4.3 | 5.2 | 0.00 | 0.00 | 0.00 | 44 | 1017.3 |
| 20260830144019 | 85 | 190 | 7.0 | 8.7 | 0.00 | 0.00 | 0.00 | 45 | 1017.1 |
| 20260830143514 | 84 | 150 | 4.3 | 6.1 | 0.00 | 0.00 | 0.00 | 46 | 1017.1 |
| 20260830143012 | 84 | 189 | 9.6 | 13.0 | 0.00 | 0.00 | 0.00 | 46 | 1017.1 |
| 20260830142508 | 84 | 178 | 6.1 | 7.0 | 0.00 | 0.00 | 0.00 | 46 | 1017.1 |
| 20260830142003 | 83 | 207 | 6.1 | 12.2 | 0.00 | 0.00 | 0.00 | 47 | 1017.0 |
| 20260830141458 | 83 | 182 | 10.4 | 13.0 | 0.00 | 0.00 | 0.00 | 47 | 1017.1 |
| 20260830140953 | 82 | 251 | 7.0 | 7.8 | 0.00 | 0.00 | 0.00 | 48 | 1017.2 |
| 20260830140452 | 82 | 169 | 8.7 | 12.2 | 0.00 | 0.00 | 0.00 | 48 | 1017.2 |
| 20260830135951 | 82 | 190 | 5.2 | 7.0 | 0.00 | 0.00 | 0.00 | 49 | 1017.3 |
| 20260830135447 | 82 | 167 | 7.8 | 8.7 | 0.00 | 0.00 | 0.00 | 49 | 1017.2 |
| 20260830134942 | 81 | 195 | 5.2 | 6.1 | 0.00 | 0.00 | 0.00 | 49 | 1017.3 |
| 20260830134438 | 81 | 192 | 5.2 | 7.0 | 0.00 | 0.00 | 0.00 | 50 | 1017.1 |
| 20260830133933 | 81 | 82 | 2.6 | 3.5 | 0.00 | 0.00 | 0.00 | 50 | 1017.1 |
| 20260830133429 | 80 | 186 | 2.6 | 3.5 | 0.00 | 0.00 | 0.00 | 51 | 1017.1 |
| 20260830132924 | 80 | 123 | 3.5 | 3.5 | 0.00 | 0.00 | 0.00 | 51 | 1017.1 |
| 20260830132421 | 80 | 214 | 3.5 | 5.2 | 0.00 | 0.00 | 0.00 | 52 | 1017.1 |
| 20260830131920 | 79 | 167 | 3.5 | 5.2 | 0.00 | 0.00 | 0.00 | 52 | 1017.1 |
| 20260830131414 | 78 | 187 | 4.3 | 6.1 | 0.00 | 0.00 | 0.00 | 53 | 1017.1 |
| 20260830130914 | 78 | 181 | 3.5 | 5.2 | 0.00 | 0.00 | 0.00 | 53 | 1017.0 |
| 20260830130410 | 78 | 170 | 4.3 | 6.1 | 0.00 | 0.00 | 0.00 | 53 | 1016.8 |
| 20260830125908 | 78 | 200 | 4.3 | 6.1 | 0.00 | 0.00 | 0.00 | 53 | 1016.9 |
| 20260830125404 | 78 | 195 | 3.5 | 5.2 | 0.00 | 0.00 | 0.00 | 54 | 1017.1 |
| 20260830124902 | 77 | 152 | 4.3 | 5.2 | 0.00 | 0.00 | 0.00 | 54 | 1017.0 |
| 20260830124357 | 77 | 101 | 3.5 | 5.2 | 0.00 | 0.00 | 0.00 | 54 | 1016.9 |
| 20260830123853 | 77 | 199 | 4.3 | 6.1 | 0.00 | 0.00 | 0.00 | 54 | 1016.9 |
| 20260830123350 | 77 | 169 | 5.2 | 7.0 | 0.00 | 0.00 | 0.00 | 54 | 1016.8 |
| 20260830122847 | 77 | 274 | 1.7 | 2.6 | 0.00 | 0.00 | 0.00 | 55 | 1016.9 |
| 20260830122342 | 77 | 123 | 2.6 | 2.6 | 0.00 | 0.00 | 0.00 | 55 | 1016.8 |
| 20260830121837 | 77 | 142 | 2.6 | 2.6 | 0.00 | 0.00 | 0.00 | 55 | 1016.8 |
| 20260830121337 | 77 | 184 | 1.7 | 1.7 | 0.00 | 0.00 | 0.00 | 55 | 1016.8 |
| 20260830120832 | 77 | 124 | 5.2 | 6.1 | 0.00 | 0.00 | 0.00 | 55 | 1016.9 |
| 20260830120327 | 77 | 200 | 3.5 | 5.2 | 0.00 | 0.00 | 0.00 | 54 | 1016.9 |
| 20260830115825 | 77 | 352 | 1.7 | 2.6 | 0.00 | 0.00 | 0.00 | 54 | 1016.8 |
| 20260830115321 | 77 | 240 | 1.7 | 2.6 | 0.00 | 0.00 | 0.00 | 54 | 1016.9 |
| 20260830114816 | 77 | 105 | 1.7 | 1.7 | 0.00 | 0.00 | 0.00 | 54 | 1016.7 |
| 20260830114312 | 77 | 189 | 3.5 | 5.2 | 0.00 | 0.00 | 0.00 | 54 | 1016.7 |
| 20260830113806 | 77 | 155 | 2.6 | 2.6 | 0.00 | 0.00 | 0.00 | 54 | 1016.7 |
| 20260830113301 | 77 | 221 | 5.2 | 7.0 | 0.00 | 0.00 | 0.00 | 53 | 1016.7 |
| 20260830112757 | 77 | 46 | 0.9 | 0.9 | 0.00 | 0.00 | 0.00 | 53 | 1016.7 |
| 20260830112253 | 77 | 61 | 0.9 | 1.7 | 0.00 | 0.00 | 0.00 | 53 | 1016.7 |
| 20260830111749 | 78 | 161 | 3.5 | 3.5 | 0.00 | 0.00 | 0.00 | 52 | 1016.6 |
| 20260830111245 | 78 | 303 | 1.7 | 1.7 | 0.00 | 0.00 | 0.00 | 52 | 1016.6 |
| 20260830110744 | 78 | 359 | 0.9 | 0.9 | 0.00 | 0.00 | 0.00 | 52 | 1016.4 |
| 20260830110241 | 78 | 119 | 3.5 | 3.5 | 0.00 | 0.00 | 0.00 | 52 | 1016.7 |
| 20260830105740 | 78 | 236 | 4.3 | 5.2 | 0.00 | 0.00 | 0.00 | 52 | 1016.6 |
| 20260830105236 | 78 | 185 | 1.7 | 2.6 | 0.00 | 0.00 | 0.00 | 52 | 1016.5 |
| 20260830104732 | 78 | 137 | 2.6 | 3.5 | 0.00 | 0.00 | 0.00 | 52 | 1016.4 |
| 20260830104229 | 78 | 71 | 2.6 | 3.5 | 0.00 | 0.00 | 0.00 | 52 | 1016.5 |
| 20260830103728 | 78 | 135 | 4.3 | 6.1 | 0.00 | 0.00 | 0.00 | 52 | 1016.3 |
| 20260830103223 | 78 | 204 | 3.5 | 5.2 | 0.00 | 0.00 | 0.00 | 52 | 1016.3 |
| 20260830102721 | 78 | 128 | 3.5 | 5.2 | 0.00 | 0.00 | 0.00 | 51 | 1016.4 |
| 20260830102217 | 78 | 193 | 2.6 | 3.5 | 0.00 | 0.00 | 0.00 | 51 | 1016.4 |
| 20260830101714 | 78 | 127 | 3.5 | 3.5 | 0.00 | 0.00 | 0.00 | 51 | 1016.3 |
| 20260830101208 | 78 | 90 | 1.7 | 2.6 | 0.00 | 0.00 | 0.00 | 51 | 1016.3 |
| 20260830100703 | 78 | 92 | 2.6 | 2.6 | 0.00 | 0.00 | 0.00 | 51 | 1016.1 |
| 20260830100202 | 78 | 155 | 5.2 | 6.1 | 0.00 | 0.00 | 0.00 | 51 | 1016.3 |
| 20260830095701 | 78 | 148 | 2.6 | 3.5 | 0.00 | 0.00 | 0.00 | 51 | 1016.2 |
| 20260830095157 | 78 | 171 | 2.6 | 2.6 | 0.00 | 0.00 | 0.00 | 52 | 1016.3 |
| 20260830094653 | 78 | 135 | 2.6 | 3.5 | 0.00 | 0.00 | 0.00 | 52 | 1016.1 |
| 20260830094149 | 78 | 162 | 2.6 | 3.5 | 0.00 | 0.00 | 0.00 | 52 | 1016.3 |
| 20260830093644 | 78 | 192 | 1.7 | 1.7 | 0.00 | 0.00 | 0.00 | 52 | 1016.0 |
| 20260830093141 | 78 | 85 | 2.6 | 3.5 | 0.00 | 0.00 | 0.00 | 52 | 1016.0 |
| 20260830092634 | 78 | 173 | 3.5 | 3.5 | 0.00 | 0.00 | 0.00 | 52 | 1016.2 |
| 20260830092133 | 78 | 179 | 2.6 | 3.5 | 0.00 | 0.00 | 0.00 | 52 | 1015.9 |
| 20260830091632 | 78 | 218 | 3.5 | 3.5 | 0.00 | 0.00 | 0.00 | 51 | 1016.1 |
| 20260830091131 | 79 | 156 | 5.2 | 7.0 | 0.00 | 0.00 | 0.00 | 51 | 1016.1 |
| 20260830090627 | 79 | 134 | 5.2 | 7.0 | 0.00 | 0.00 | 0.00 | 51 | 1016.1 |
| 20260830090122 | 79 | 134 | 6.1 | 8.7 | 0.00 | 0.00 | 0.00 | 51 | 1016.0 |
| 20260830085621 | 79 | 47 | 3.5 | 6.1 | 0.00 | 0.00 | 0.00 | 51 | 1015.9 |
| 20260830085118 | 79 | 62 | 3.5 | 5.2 | 0.00 | 0.00 | 0.00 | 51 | 1016.0 |
| 20260830084613 | 79 | 102 | 3.5 | 5.2 | 0.00 | 0.00 | 0.00 | 51 | 1016.0 |
| 20260830084112 | 79 | 165 | 4.3 | 7.0 | 0.00 | 0.00 | 0.00 | 50 | 1016.0 |
| 20260830083609 | 79 | 135 | 3.5 | 7.0 | 0.00 | 0.00 | 0.00 | 50 | 1016.0 |
| 20260830083109 | 80 | 99 | 2.6 | 2.6 | 0.00 | 0.00 | 0.00 | 50 | 1015.9 |
| 20260830082608 | 80 | 161 | 4.3 | 7.0 | 0.00 | 0.00 | 0.00 | 50 | 1016.0 |
| 20260830082104 | 80 | 188 | 4.3 | 7.0 | 0.00 | 0.00 | 0.00 | 50 | 1016.1 |
| 20260830081600 | 80 | 200 | 3.5 | 3.5 | 0.00 | 0.00 | 0.00 | 50 | 1016.1 |
| 20260830081100 | 80 | 170 | 4.3 | 6.1 | 0.00 | 0.00 | 0.00 | 50 | 1015.9 |
| 20260830080600 | 80 | 153 | 3.5 | 5.2 | 0.00 | 0.00 | 0.00 | 49 | 1015.7 |
| 20260830080055 | 80 | 135 | 5.2 | 7.0 | 0.00 | 0.00 | 0.00 | 49 | 1016.0 |
| 20260830075550 | 80 | 159 | 3.5 | 3.5 | 0.00 | 0.00 | 0.00 | 49 | 1016.0 |
| 20260830075045 | 80 | 200 | 4.3 | 6.1 | 0.00 | 0.00 | 0.00 | 49 | 1015.9 |
| 20260830074541 | 80 | 67 | 3.5 | 3.5 | 0.00 | 0.00 | 0.00 | 49 | 1016.1 |
| 20260830074037 | 80 | 165 | 1.7 | 1.7 | 0.00 | 0.00 | 0.00 | 49 | 1016.0 |
| 20260830073532 | 80 | 186 | 5.2 | 6.1 | 0.00 | 0.00 | 0.00 | 49 | 1016.0 |
| 20260830073027 | 80 | 178 | 2.6 | 2.6 | 0.00 | 0.00 | 0.00 | 49 | 1016.0 |
| 20260830072523 | 80 | 111 | 3.5 | 6.1 | 0.00 | 0.00 | 0.00 | 49 | 1016.0 |
| 20260830072023 | 81 | 129 | 2.6 | 2.6 | 0.00 | 0.00 | 0.00 | 49 | 1016.1 |
| 20260830071518 | 81 | 178 | 4.3 | 6.1 | 0.00 | 0.00 | 0.00 | 49 | 1016.2 |
| 20260830071015 | 81 | 77 | 3.5 | 6.1 | 0.00 | 0.00 | 0.00 | 49 | 1016.1 |
| 20260830070511 | 81 | 136 | 3.5 | 6.1 | 0.00 | 0.00 | 0.00 | 49 | 1016.1 |
| 20260830070011 | 81 | 135 | 3.5 | 3.5 | 0.00 | 0.00 | 0.00 | 49 | 1016.2 |
| 20260830065510 | 81 | 182 | 5.2 | 7.0 | 0.00 | 0.00 | 0.00 | 49 | 1016.3 |
| 20260830065008 | 81 | 111 | 2.6 | 3.5 | 0.00 | 0.00 | 0.00 | 50 | 1016.2 |
| 20260830064503 | 81 | 68 | 3.5 | 3.5 | 0.00 | 0.00 | 0.00 | 50 | 1016.2 |
| 20260830063958 | 81 | 135 | 5.2 | 7.8 | 0.00 | 0.00 | 0.00 | 50 | 1016.3 |
| 20260830063458 | 81 | 159 | 5.2 | 8.7 | 0.00 | 0.00 | 0.00 | 50 | 1016.3 |
| 20260830062957 | 81 | 207 | 3.5 | 6.1 | 0.00 | 0.00 | 0.00 | 51 | 1016.3 |
| 20260830062456 | 81 | 171 | 5.2 | 7.0 | 0.00 | 0.00 | 0.00 | 51 | 1016.4 |
| 20260830061951 | 81 | 172 | 3.5 | 3.5 | 0.00 | 0.00 | 0.00 | 51 | 1016.5 |
| 20260830061446 | 81 | 127 | 2.6 | 2.6 | 0.00 | 0.00 | 0.00 | 52 | 1016.3 |
| 20260830060943 | 81 | 185 | 5.2 | 7.8 | 0.00 | 0.00 | 0.00 | 52 | 1016.3 |
| 20260830060439 | 81 | 84 | 2.6 | 3.5 | 0.00 | 0.00 | 0.00 | 52 | 1016.2 |
| 20260830055934 | 81 | 159 | 2.6 | 2.6 | 0.00 | 0.00 | 0.00 | 52 | 1016.2 |
| 20260830055430 | 81 | 129 | 5.2 | 6.1 | 0.00 | 0.00 | 0.00 | 52 | 1016.3 |
| 20260830054925 | 81 | 185 | 3.5 | 5.2 | 0.00 | 0.00 | 0.00 | 52 | 1016.5 |
| 20260830054422 | 81 | 148 | 4.3 | 5.2 | 0.00 | 0.00 | 0.00 | 53 | 1016.3 |
| 20260830053917 | 81 | 155 | 2.6 | 2.6 | 0.00 | 0.00 | 0.00 | 52 | 1016.4 |
| 20260830053412 | 81 | 186 | 2.6 | 5.2 | 0.00 | 0.00 | 0.00 | 52 | 1016.3 |
| 20260830052911 | 81 | 76 | 3.5 | 5.2 | 0.00 | 0.00 | 0.00 | 52 | 1016.3 |
| 20260830052407 | 81 | 187 | 1.7 | 2.6 | 0.00 | 0.00 | 0.00 | 52 | 1016.3 |
| 20260830051902 | 81 | 62 | 2.6 | 5.2 | 0.00 | 0.00 | 0.00 | 52 | 1016.3 |
| 20260830051357 | 82 | 188 | 3.5 | 6.1 | 0.00 | 0.00 | 0.00 | 52 | 1016.1 |
| 20260830050856 | 81 | 149 | 6.1 | 8.7 | 0.00 | 0.00 | 0.00 | 52 | 1016.2 |
| 20260830050352 | 82 | 43 | 1.7 | 1.7 | 0.00 | 0.00 | 0.00 | 52 | 1016.3 |
| 20260830045850 | 82 | 155 | 4.3 | 6.1 | 0.00 | 0.00 | 0.00 | 52 | 1016.3 |
| 20260830045345 | 82 | 152 | 1.7 | 2.6 | 0.00 | 0.00 | 0.00 | 51 | 1016.3 |
| 20260830044844 | 82 | 356 | 3.5 | 3.5 | 0.00 | 0.00 | 0.00 | 51 | 1016.5 |
| 20260830044340 | 82 | 55 | 1.7 | 2.6 | 0.00 | 0.00 | 0.00 | 50 | 1016.3 |
| 20260830043830 | 82 | 74 | 1.7 | 2.6 | 0.00 | 0.00 | 0.00 | 50 | 1016.1 |
| 20260830043329 | 82 | 129 | 2.6 | 3.5 | 0.00 | 0.00 | 0.00 | 49 | 1016.3 |
| 20260830042827 | 83 | 311 | 1.7 | 2.6 | 0.00 | 0.00 | 0.00 | 49 | 1016.1 |